Content
SEND FEEDBACK

Daily
Averages
Monthly
Summary
United States of America

NEW YORK, NEW YORK


Home > North America > United States > New York
Elevation: 131 feet     Latitude: 40 47N     Longitude: 073 58W

WEATHER
 
SELECT A DAY
Number of Records: 150,546;   Date Range: 11/1/95 - 9/30/14
 
SHARE

PRINT THIS DATA

[ ← Previous Day ]
WEATHER ALMANAC - APRIL 10, 2013
[ Next Day → ]
[ °C ]   °F
Weather ElementAverageHighLow
Temperature61.4 °F72 °F (1:51 pm)55.4 °F (10:48 pm)
Dewpoint50.2 °F57 °F (11:42 pm)44.1 °F (4:51 am)
Humidity69.3 %100 % (10:48 pm)44 % (1:51 pm)
Barometer29.89 in29.95 in (7:25 pm)29.81 in (2:51 am)
Wind Speed4.3 mph10.4 mph (2:51 pm)
Wind Gust16.1 mph (4:51 pm)
Weather ElementAverage
Visibility7.3 mi
Wind DirectionENE (57.2 °)

Weather ElementTotal
Precipitation0.95 in
Heating Degree Days1.3 (Base 65)
Growing Degree Days13.7 (Base 50)
Averaged from 29 records on April 10, 2013
WEATHER CONDITIONS BREAKOUT
WIND DIRECTION BREAKOUT
WEATHER BY HOUR - APRIL 10, 2013
[ °C ]   °F
Local TimeTemperatureDewpointHumidityBarometerVisibilityWind DirectionWind SpeedGust SpeedPrecipitationEventsConditions
1:51 AM70.0 °F48.9 °F47 %29.86 in10.0 miVariable4.6 mphClear
2:51 AM70.0 °F50.0 °F49 %29.81 in10.0 miVariable6.9 mphClear
3:51 AM66.0 °F48.9 °F54 %29.86 in10.0 miVariable4.6 mphScattered Clouds
4:51 AM59.0 °F44.1 °F58 %29.88 in10.0 miNE (50°)3.5 mphClear
5:51 AM57.0 °F45.0 °F64 %29.89 in10.0 miCalmClear
6:51 AM55.9 °F46.0 °F69 %29.91 in10.0 miCalmClear
7:51 AM57.9 °F45.0 °F62 %29.94 in10.0 miNNE (30°)3.5 mphClear
8:51 AM59.0 °F46.0 °F62 %29.93 in10.0 miCalmOvercast
9:51 AM63.0 °F46.9 °F56 %29.93 in10.0 miENE (60°)5.8 mphClear
10:51 AM66.0 °F46.9 °F50 %29.93 in10.0 miENE (70°)5.8 mphClear
11:51 AM66.9 °F48.0 °F51 %29.93 in10.0 miENE (60°)5.8 mphOvercast
12:51 PM69.1 °F48.0 °F47 %29.93 in10.0 miESE (120°)5.8 mphClear
1:51 PM72.0 °F48.9 °F44 %29.92 in10.0 miEast (80°)6.9 mphClear
2:51 PM72.0 °F50.0 °F46 %29.90 in10.0 miENE (60°)10.4 mphClear
3:51 PM71.1 °F48.9 °F45 %29.87 in10.0 miNorth
4:51 PM63.0 °F46.9 °F56 %29.88 in10.0 miVariable4.6 mph16.1 mphClear
5:51 PM60.1 °F46.0 °F60 %29.86 in10.0 miNorthPartly Cloudy
6:51 PM57.0 °F46.0 °F67 %29.84 in10.0 miVariable5.8 mphClear
7:25 PM57.0 °F53.1 °F87 %29.95 in1.8 miCalm0.04 inRainHeavy Rain
7:51 PM57.0 °F54.0 °F89 %29.84 in3.0 miSSE (150°)10.4 mph0.20 inRainLight Rain
8:51 PM57.9 °F55.0 °F90 %29.84 in7.0 miSSW (200°)4.6 mph0.03 inClear
9:51 PM57.0 °F53.1 °F87 %29.84 in8.0 miNorthPartly Cloudy
10:25 PM57.0 °F54.0 °F89 %29.94 in1.8 miWest (260°)4.6 mph0.01 inRainHeavy Rain
10:39 PM57.0 °F55.0 °F93 %29.95 in1.5 miVariable4.6 mph0.15 inRainHeavy Rain
10:48 PM55.4 °F55.4 °F100 %29.92 in1.5 miSouth (190°)4.6 mph0.19 inRainRain
10:51 PM55.9 °F55.0 °F97 %29.89 in1.5 miSouth (180°)4.6 mph0.21 inRainRain
11:28 PM57.0 °F55.9 °F96 %29.90 in3.0 miCalm0.04 inOvercast
11:42 PM57.9 °F57.0 °F97 %29.89 in2.0 miCalm0.04 inRainLight Rain
11:51 PM57.9 °F57.0 °F97 %29.85 in1.5 miSSE (150°)3.5 mph0.04 inRainLight Rain
Hourly data recorded from KNYC, located miles away from New York, New York







STORIES FROM OUR PARTNERS